ESSAESSV

Guest
Details From ESSA - Stockholm Arlanda
To ESSV - Visby
Flight Number -
Tags Generated
Created
Modified
Stats Distance 119 nm / 221 km
Max Altitude 0 ft / 0 m
Waypoints 2
Social Downloads 16
Likes 0
Share VATSIM

Download

Looking for another format? Having issues loading an existing format? Contact us
Advertisement - Login to hide

Notes

Generated

Route

ESSA ESSV

ID Type Via Altitude Latitude Longitude Leg Dist Tot Dist Heading (true) Name
O ESSA APT - 0 ft / 0 m 59.62640˚ 17.95074˚ - 0 nm - -
O ESSV APT - 0 ft / 0 m 57.65099˚ 18.32965˚ 119 nm 119 nm 174° / 174° -

Altitude Profile

Advertisement - Login to hide

ESSA

Details ICAO ESSA (ARN)
Name Stockholm Arlanda
Region Sweden
Timezone Europe/Stockholm (UTC+2.0)
Stats Elevation 137 ft / 42 m (AMSL)
Location 59.650140° 17.943628°
Runways 3
Magnetic Variation 6.066° E

METAR

ESSA 260650Z 07006KT 5000 BR OVC002 12/12 Q1038 NOSIG

Decode

TAF

TAF ESSA 260530Z 2606/2706 06006KT 0300 FG VV002 TEMPO 2606/2609 4000 BR BECMG 2609/2611 CAVOK PROB40 2621/2624 2000 BR BKN004 PROB40 2700/2706 0300 FG VV002

Decode

Departure Runways

ID Width Length Bearing (true) Bearing (mag) Surface Threshold Offset Overrun Length
01L 148 ft / 45 m 10,812 ft / 3,296 m 10.35° 4.28° Concrete 0 ft / 0 m 0 ft / 0 m
01R 148 ft / 45 m 8,188 ft / 2,496 m 10.38° 4.31° Asphalt 0 ft / 0 m 0 ft / 0 m
08 148 ft / 45 m 8,178 ft / 2,493 m 75.83° 69.76° Concrete 0 ft / 0 m 0 ft / 0 m
19L 148 ft / 45 m 8,188 ft / 2,496 m 190.39° 184.32° Asphalt 0 ft / 0 m 0 ft / 0 m
19R 148 ft / 45 m 10,812 ft / 3,296 m 190.36° 184.29° Concrete 0 ft / 0 m 0 ft / 0 m
26 148 ft / 45 m 8,178 ft / 2,493 m 255.87° 249.80° Concrete 0 ft / 0 m 0 ft / 0 m

ESSV

Details ICAO ESSV (VBY)
Name Visby
Region Sweden
Timezone Europe/Stockholm (UTC+2.0)
Stats Elevation 164 ft / 50 m (AMSL)
Location 57.656405° 18.342448°
Runways 2
Magnetic Variation 5.880° E

METAR

ESSV 260650Z 11009KT CAVOK 14/14 Q1034

Decode

TAF

Not found

Destination Runways

ID Width Length Bearing (true) Bearing (mag) Surface Threshold Offset Overrun Length
03 148 ft / 45 m 6,552 ft / 1,997 m 20.95° 15.07° Asphalt 0 ft / 0 m 0 ft / 0 m
10 131 ft / 40 m 3,599 ft / 1,097 m 101.41° 95.53° Grass 0 ft / 0 m 0 ft / 0 m
21 148 ft / 45 m 6,552 ft / 1,997 m 200.96° 195.08° Asphalt 0 ft / 0 m 0 ft / 0 m
28 131 ft / 40 m 3,599 ft / 1,097 m 281.43° 275.55° Grass 0 ft / 0 m 0 ft / 0 m

Approach Navaids

Runway Type Ident Frequency Range Bearing (true) Bearing (mag) Slope Elevation
21 Localiser SV 110.30 MHz 18 nm / 33 km 200.95° 195.07° - 164 ft / 50 m (AMSL)
21 Glidescope SV 110.30 MHz 10 nm / 19 km 200.95° 195.07° 3.00° 164 ft / 50 m (AMSL)

Popular Alternatives